SL-12 R/B(2), 12850

Orbit data source: Space-Track

SL-12 R/B(2), 12850 is space debris in GEO originally from a launch on Thu, 30 Jul 1981 UTC launched from the Tyuratam Missile And Space Complex (TTMTR). Debris objects in space refer to the collection of defunct objects orbiting the Earth. Examples of debris include non-operational satellites, rocket bodies, and fragments generated from explosions, collisions, or faulty payload assembly.

Loading next visibility...
Identifier
12850, 1981-069F
Orbit
GEO
Country
Flag of CISCIS
Related business
Manufacturer
NPO Energiya
Mission
Spacecraft
Bus & Motor
BLOK DM, Unknown motor
Mass
2,440 kg wet, 2,440 kg dry
Launch date (UTC)
1981-07-30 (45 years ago)
Launch vehicle
Unknown
Launch site
Tyuratam Missile And Space Complex (TTMTR)
Object type
Payload
Rocket body
Debris
Shape & HBR
Unknown
Radar Cross Section
Large (>1 m²)

Expand to show TLE details & history
Last TLE update: 5 hours ago

TLE from 5 hours ago
0 SL-12 R/B(2)
1 12850U 81069F   26127.65531785 -.00000131  00000-0  00000+0 0  9993
2 12850   8.2352 300.0885 0020162 186.7594 168.4239  0.97701318115829
Epoch: 2026-05-07T15:43Z
TLE epoch observation values (Epoch: 2026-05-07T15:43:39.462Z)
Latitude
-0.67382°
Longitude
-166.06131°
Altitude
36,606.973 km
Speed
3.042 km/s
True Right ascension
19h 41m 24s
True Declination
0° 40' 23"
Sunlit
Object was in daylight at epoch
Visualization orbit readout
Latitude
Unknown
Longitude
Unknown
Altitude
Unknown
Speed
Unknown
Apparent Right ascension
Unknown
Apparent Declination
Unknown
Sunlit
N/A
Visualization observer readout
Local Sidereal Time
04:29:14
Azimuth
Unknown
Elevation
Unknown
Doppler factor
Unknown
Orbital elements
Apogee altitude
36,610.464 km
Perigee altitude
36,437.465 km
Semi-major axis
42,902.101 km
Eccentricity
0.00202
Inclination
8.2352°
RAAN
300.0885°
Arg. of periapsis
186.7594°
True anomaly
168.47015°
Mean anomaly
168.4239°
Eccentric anomaly
168.44704°
Mean motion
0.24424 °/min
Orbital period
1,473.93 mins
BSTAR
0
Loading maneuver chart data...
Computing Atmospheric mass density...
Loading historical data...
Loading historical data...
Loading historical data...
Loading historical data...
Loading historical data...
Loading historical data...
Loading historical data...

Documentation

Showing up to 5 results
|